Weather History for Durango, Mexico

Change the Weather History Date:

Friday, February 8, 2013

  Actual Average Record
Temperature  
Mean Temperature 64 °F -  
Max Temperature 82 °F 73 °F 82 °F (2013)
Min Temperature 45 °F 37 °F 28 °F (1998)
Degree Days  
Heating Degree Days 2    
Growing Degree Days 14 (Base 50)    
Moisture  
Dew Point 23 °F    
Average Humidity 27    
Maximum Humidity 76    
Minimum Humidity 8    
Precipitation  
Precipitation 0.00 in - - ()
Sea Level Pressure  
Sea Level Pressure 30.04 in    
Wind  
Wind Speed 6 mph ()    
Max Wind Speed 22 mph    
Max Gust Speed -    
Visibility 13.5 miles    
Events      
Averages and records for this station are not official NWS values.
T = Trace of Precipitation, MM = Missing Value Source: Averaged Metar Reports

Daily Weather History Graph

Daily Weather History Graph

Search for Another Location

Airport:

Trip Planner

Search our weather history database for the weather conditions in past years. The results will help you decide how hot, cold, wet, or windy it might be!

Date:

Astronomy

Feb. 08, 2013 Rise Set
Actual Time 7:35 AM CST 6:49 PM CST
Civil Twilight 7:12 AM CST 7:12 PM CST
Nautical Twilight 6:45 AM CST 7:39 PM CST
Astronomical Twilight 6:18 AM CST 8:06 PM CST
Moon 6:01 AM CST (2/8) 5:28 PM CST (2/8)
Length of Visible Light 12h 00m
Length of Day
11h 13m
Waning Crescent, 3% of the Moon is Illuminated
Feb 8
Waning Crescent
Feb 10
New
Feb 17
First Quarter
Feb 25
Full
Mar 4
Last Quarter

Hourly Weather History & Observations

Time (CST) Temp. Windchill Dew Point Humidity Pressure Visibility Wind Dir Wind Speed Gust Speed Precip Events Conditions
5:50 AM 48 °F - 33 °F 45% 29.93 in 6 mi Calm Calm - -  
6:10 AM 41.0 °F - 33.8 °F 76% 29.96 in 8.0 mi Calm Calm - N/A   Scattered Clouds
6:40 AM 41.0 °F - 32.0 °F 70% 30.22 in 8.0 mi Calm Calm - N/A   Clear
7:47 AM 35.6 °F 32.8 °F 28.4 °F 75% 30.24 in 14.0 mi ENE 3.5 mph - N/A   Partly Cloudy
8:42 AM 42.8 °F - 30.2 °F 61% 30.04 in 14.0 mi Calm Calm - N/A   Clear
8:50 AM 53 °F - 32 °F 32% 30.02 in 19 mi West 4.5 mph - -   Scattered Clouds
9:41 AM 60.8 °F - 24.8 °F 25% 30.26 in 14.0 mi SSW 10.4 mph - N/A   Clear
10:42 AM 64.4 °F - 24.8 °F 22% 30.27 in 14.0 mi South 6.9 mph - N/A   Clear
11:42 AM 68.0 °F - 23.0 °F 18% 29.93 in 14.0 mi South 6.9 mph - N/A   Clear
11:45 AM 71 °F - 36 °F 18% 30.00 in 19 mi SSW 2.2 mph - -   Scattered Clouds
12:40 PM 73.4 °F - 15.8 °F 11% 30.20 in 14.0 mi South 15.0 mph - N/A   Clear
1:42 PM 75.2 °F - 10.4 °F 8% 30.15 in 14.0 mi South 19.6 mph - N/A   Clear
2:40 PM 79 °F - 32 °F 10% 29.82 in 25 mi SW 11.2 mph - -   Scattered Clouds
2:46 PM 77.0 °F - 10.4 °F 8% 29.81 in 14.0 mi SSW 18.4 mph - N/A   Clear
3:40 PM 77.0 °F - 12.2 °F 9% 30.10 in 14.0 mi SSW 20.7 mph - N/A   Clear
4:42 PM 75.2 °F - 14.0 °F 10% 30.09 in 14.0 mi South 18.4 mph - N/A   Clear
5:44 PM 73.4 °F - 12.2 °F 10% 29.86 in 14.0 mi South 21.9 mph - N/A   Clear
5:45 PM 72 °F - 27 °F 10% 29.71 in 19 mi SW 8.9 mph - -  
6:41 PM 69.8 °F - 15.8 °F 13% 30.12 in 14.0 mi South 13.8 mph - N/A   Clear
7:40 PM 62.6 °F - 17.6 °F 18% 30.14 in 10.0 mi SSW 12.7 mph - N/A   Clear